Погода в Казановке

Россия / Тульская область     53°45′20″N   38°34′31″E
темп.,
°C
ветер,
м/с
пор.,
м/с
влажн.,
%
обл.,
%
осадки,
мм/ч
давл.,
гПа
погр.,
м
13 июня, вс
вс1300:00+14зсз228769 0.0 100811
03:00+14сз228895 0.0 100715
06:00+15з1288100 0.0 100774
09:00+18юз2277100 0.0 1008459
12:00+22ююз456328 0.1 10071429
15:00+23юз455896 0.8 10071906
18:00+20юз357652 0.5 1008137
21:00+17ююз3485100 0.6 100952
14 июня, пн
пн1400:00+16ююз2288100 0.0 101034
03:00+15ю339496 0.0 101152
06:00+16ююз249340 0.0 1013136
09:00+21зюз237411 0.0 1014558
12:00+23з226165 0.0 10151289
15:00+25з115442 0.0 10151667
18:00+25зюз115831 0.0 10141451
21:00+19сз227710 0.0 101513
15 июня, вт
вт1500:00+17с228699 0.0 101513
03:00+16ссв1189100 0.0 101511
06:00+18ссв228696 0.0 101585
09:00+21ссв2275100 0.0 1014437
12:00+24с2265100 1.0 10131125
15:00+25ссв335995 1.1 10111537
18:00+22ююв2279100 1.3 101156
21:00+19з228498 1.3 101013
16 июня, ср
ср1600:00+18сз2291100 3.1 101030
03:00+17ссз349276 3.1 100964
06:00+17ссз249169 0.0 1010140
09:00+21с347866 0.0 1010510
12:00+24с456673 0.8 10101055
15:00+20с5108398 3.0 1012489
18:00+21с6107522 0.0 1013869
21:00+18с613800 0.0 1015479
17 июня, чт
чт1700:00+15с512840 0.0 1016356
03:00+13ссв513770 0.0 1018356
06:00+14ссв512820 0.0 1019374
09:00+18св610660 0.0 1020648
12:00+20св68540 0.0 10211432
15:00+21ссв68540 0.0 10211492
18:00+20ссв48640 0.0 1022697
21:00+15ссв48860 0.0 1023143